OE6PLD-13 Weather Reports


time (UTC)temp
C
wind
direction
speed
KPH
gust
KPH
rain 1hr
cm
rain 24hr
cm
rain mn
cm
humidity
%
barometer
mb
20260507201110 10 266 0.0 4.8 0.00 0.69 0.71 96 1017.3
20260507200807 10 266 3.2 4.8 0.00 0.69 0.71 96 1017.4
20260507200504 10 266 0.0 0.0 0.00 0.69 0.71 96 1017.2
20260507200200 10 266 0.0 0.0 0.08 0.69 0.71 96 1017.3
20260507195857 11 266 0.0 0.0 0.08 0.69 0.71 96 1017.2
20260507195554 11 257 0.0 0.0 0.08 0.69 0.71 96 1017.1
20260507195250 11 256 0.0 0.0 0.08 0.69 0.71 96 1017.2
20260507194947 11 256 0.0 0.0 0.08 0.69 0.71 96 1017.0
20260507194644 10 259 0.0 0.0 0.08 0.69 0.71 95 1017.0
20260507194340 10 258 0.0 0.0 0.08 0.69 0.71 95 1017.1
20260507194037 10 257 0.0 1.6 0.08 0.69 0.71 95 1016.9
20260507193733 10 256 0.0 3.2 0.08 0.69 0.71 95 1017.0
20260507193430 10 258 0.0 1.6 0.18 0.69 0.71 95 1016.7
20260507193127 10 263 0.0 3.2 0.18 0.69 0.69 95 1016.7
20260507192823 10 260 0.0 8.0 0.28 0.69 0.69 94 1016.7
20260507192519 10 261 1.6 4.8 0.28 0.69 0.69 94 1016.6
20260507192216 10 258 1.6 6.4 0.18 0.58 0.66 94 1016.7
20260507191913 10 257 3.2 6.4 0.28 0.58 0.66 94 1016.6
20260507191610 10 259 1.6 6.4 0.28 0.58 0.66 93 1016.4
20260507191306 10 263 1.6 8.0 0.38 0.58 0.66 93 1016.0
20260507191003 11 264 1.6 8.0 0.38 0.58 0.66 93 1016.0
20260507190659 10 262 1.6 12.9 0.38 0.58 0.66 93 1016.3
20260507190356 10 262 4.8 6.4 0.28 0.58 0.64 93 1016.5
20260507190053 11 263 0.0 3.2 0.38 0.58 0.64 93 1016.3
20260507185749 11 256 0.0 6.4 0.28 0.58 0.61 92 1016.4
20260507185446 11 265 3.2 8.0 0.28 0.58 0.61 92 1016.3
20260507185142 11 266 1.6 8.0 0.28 0.58 0.56 92 1016.2
20260507184839 11 263 0.0 9.7 0.38 0.58 0.56 92 1016.3
20260507184536 11 264 0.0 22.5 0.38 0.58 0.56 92 1016.1
20260507184232 11 266 12.9 22.5 0.48 0.58 0.56 92 1016.1
20260507183929 11 266 11.3 19.3 0.48 0.48 0.56 92 1016.2
20260507183626 11 266 3.2 12.9 0.48 0.48 0.51 93 1016.0
20260507183322 11 266 4.8 9.7 0.38 0.38 0.46 93 1016.3
20260507183019 11 266 3.2 8.0 0.38 0.38 0.41 93 1016.3
20260507182716 11 266 3.2 8.0 0.38 0.38 0.41 92 1016.5
20260507182412 11 266 3.2 3.2 0.38 0.38 0.38 92 1016.5
20260507182109 11 262 0.0 3.2 0.28 0.28 0.36 91 1016.4
20260507181806 11 247 0.0 3.2 0.28 0.28 0.33 90 1016.5
20260507181502 11 241 0.0 3.2 0.28 0.28 0.28 89 1016.8
20260507181158 11 221 1.6 4.8 0.18 0.18 0.28 88 1016.9
20260507180855 12 227 1.6 6.4 0.18 0.18 0.28 87 1016.8
20260507180551 12 230 0.0 14.5 0.18 0.18 0.28 86 1016.9
20260507180248 11 226 8.0 12.9 0.18 0.18 0.23 87 1016.5
20260507175945 11 224 9.7 12.9 0.18 0.18 0.23 87 1016.1
20260507175641 11 228 1.6 8.0 0.18 0.18 0.23 88 1015.7
20260507175338 11 218 0.0 9.7 0.18 0.18 0.23 88 1015.6
20260507175035 11 207 6.4 20.9 0.18 0.18 0.23 87 1015.2
20260507174731 11 189 8.0 20.9 0.18 0.18 0.18 85 1015.4
20260507174428 12 176 8.0 16.1 0.08 0.08 0.13 85 1015.0
20260507174124 12 226 3.2 8.0 0.08 0.08 0.08 85 1014.8
20260507173821 12 242 4.8 19.3 0.00 0.00 0.05 83 1015.0
20260507173518 12 281 12.9 20.9 0.00 0.00 0.03 80 1014.8
20260507173214 13 266 16.1 32.2 0.08 0.08 0.00 78 1015.1
20260507172911 13 266 8.0 32.2 0.08 0.08 0.00 76 1015.1
20260507172608 13 266 1.6 17.7 0.08 0.08 0.00 75 1014.7
20260507172307 13 265 6.4 20.9 0.08 0.08 0.00 75 1014.3
20260507172001 13 263 6.4 20.9 0.08 0.08 0.00 75 1014.8
20260507171657 13 262 8.0 16.1 0.08 0.08 0.00 76 1014.3
20260507171353 13 262 8.0 16.1 0.08 0.08 0.00 76 1014.7
20260507171050 13 262 12.9 16.1 0.08 0.08 0.00 75 1014.7
20260507170747 13 260 11.3 19.3 0.08 0.08 0.00 74 1014.5
20260507170443 13 258 14.5 19.3 0.08 0.08 0.00 72 1014.8
20260507170141 15 257 16.1 17.7 0.08 0.08 0.00 69 1014.7
20260507165836 15 256 11.3 29.0 0.08 0.08 0.00 67 1014.6
20260507165532 15 254 12.9 17.7 0.08 0.08 0.00 64 1014.7
20260507165229 15 253 8.0 17.7 0.08 0.08 0.00 63 1014.6
20260507164926 15 253 8.0 19.3 0.08 0.08 0.00 61 1014.6
20260507164622 16 252 8.0 17.7 0.08 0.08 0.00 61 1014.4
20260507164319 16 252 6.4 19.3 0.08 0.08 0.00 61 1014.2
20260507164016 16 252 11.3 19.3 0.08 0.08 0.00 61 1014.0
20260507163712 16 252 8.0 24.1 0.08 0.08 0.00 60 1013.9
20260507163409 17 251 12.9 20.9 0.08 0.08 0.00 59 1013.7
20260507163105 18 250 8.0 24.1 0.08 0.08 0.00 59 1013.8
20260507162802 20 252 4.8 24.1 0.08 0.08 0.00 60 1013.4
20260507162459 20 257 1.6 6.4 0.08 0.08 0.00 61 1013.0
20260507162155 20 255 4.8 6.4 0.08 0.08 0.00 61 1012.8
20260507161852 20 256 3.2 6.4 0.08 0.08 0.00 61 1012.7
20260507161548 20 256 0.0 8.0 0.08 0.08 0.00 61 1012.8
20260507161244 20 256 0.0 9.7 0.08 0.08 0.00 61 1012.4
20260507160940 20 256 3.2 9.7 0.08 0.08 0.00 60 1012.5
20260507160636 20 256 3.2 4.8 0.08 0.08 0.00 60 1012.5
20260507160332 20 256 0.0 6.4 0.08 0.08 0.00 60 1012.2
20260507160029 20 255 1.6 8.0 0.08 0.08 0.00 60 1012.3
20260507155725 20 256 6.4 9.7 0.08 0.08 0.00 59 1012.1
20260507155422 20 257 4.8 9.7 0.08 0.08 0.00 59 1012.1
20260507155118 21 257 3.2 12.9 0.08 0.08 0.00 58 1012.2
20260507154814 21 257 6.4 12.9 0.08 0.08 0.00 57 1012.1
20260507154510 22 256 3.2 6.4 0.08 0.08 0.00 55 1012.3
20260507154206 22 256 1.6 16.1 0.08 0.08 0.00 55 1012.3
20260507153902 21 258 3.2 16.1 0.08 0.08 0.00 56 1012.2
20260507153559 22 257 3.2 6.4 0.08 0.08 0.00 56 1012.1
20260507153255 22 257 3.2 8.0 0.08 0.08 0.00 54 1012.0
20260507152952 22 257 3.2 12.9 0.08 0.08 0.00 54 1012.2
20260507152649 22 257 4.8 9.7 0.08 0.08 0.00 54 1012.1
20260507152345 22 257 3.2 9.7 0.08 0.08 0.00 54 1012.3
20260507152042 22 256 8.0 9.7 0.08 0.08 0.00 53 1012.3
20260507151738 22 256 4.8 6.4 0.08 0.08 0.00 52 1012.1
20260507151435 22 256 3.2 6.4 0.08 0.08 0.00 52 1012.1
20260507151132 22 256 3.2 16.1 0.08 0.08 0.00 52 1012.0
20260507150828 22 256 4.8 16.1 0.08 0.08 0.00 52 1012.1
20260507150524 22 258 6.4 8.0 0.08 0.08 0.00 51 1012.2
20260507150221 22 258 1.6 6.4 0.08 0.08 0.00 50 1012.1
20260507145917 22 257 4.8 9.7 0.08 0.08 0.00 49 1011.9
20260507145614 23 256 3.2 9.7 0.08 0.08 0.00 50 1011.8
20260507145309 23 256 1.6 9.7 0.08 0.08 0.00 50 1012.0
20260507145004 22 254 1.6 8.0 0.08 0.08 0.00 50 1012.0
20260507144701 22 253 6.4 8.0 0.08 0.08 0.00 52 1012.2
20260507144357 22 254 4.8 12.9 0.08 0.08 0.00 52 1012.2
20260507144054 22 254 4.8 14.5 0.08 0.08 0.00 52 1012.3
20260507143751 21 255 8.0 14.5 0.08 0.08 0.00 53 1012.2
20260507143447 21 256 8.0 14.5 0.08 0.08 0.00 54 1012.2
20260507143144 21 254 6.4 14.5 0.08 0.08 0.00 52 1012.0
20260507142840 21 253 8.0 9.7 0.08 0.08 0.00 52 1012.2
20260507142537 22 252 4.8 20.9 0.08 0.08 0.00 52 1012.4
20260507142234 22 251 4.8 17.7 0.08 0.08 0.00 51 1012.1
20260507141930 22 252 1.6 17.7 0.08 0.08 0.00 52 1012.2
20260507141626 22 249 9.7 16.1 0.08 0.08 0.00 51 1012.3
20260507141323 22 249 4.8 16.1 0.08 0.08 0.00 49 1012.2
20260507141019 22 250 4.8 9.7 0.08 0.08 0.00 51 1012.4
20260507140716 22 251 4.8 9.7 0.08 0.08 0.00 53 1012.3
20260507140413 22 252 3.2 9.7 0.08 0.08 0.00 53 1012.2
20260507140109 21 251 3.2 9.7 0.08 0.08 0.00 53 1012.4
20260507135806 21 251 6.4 9.7 0.08 0.08 0.00 53 1012.4
20260507135503 21 251 1.6 12.9 0.08 0.08 0.00 51 1012.6
20260507135200 22 250 4.8 9.7 0.08 0.08 0.00 51 1012.3
20260507134855 22 250 3.2 6.4 0.08 0.08 0.00 51 1012.3
20260507134552 21 250 0.0 8.0 0.08 0.08 0.00 52 1012.6
20260507134249 21 250 1.6 12.9 0.08 0.08 0.00 52 1012.4
20260507133945 21 251 9.7 12.9 0.08 0.08 0.00 52 1012.3
20260507133642 21 251 3.2 17.7 0.08 0.08 0.00 54 1012.8
20260507133339 21 251 11.3 17.7 0.08 0.08 0.00 53 1012.6
20260507133035 22 252 3.2 8.0 0.08 0.08 0.00 53 1012.7
20260507132732 21 254 3.2 9.7 0.08 0.08 0.00 52 1012.6
20260507132428 22 254 0.0 12.9 0.08 0.08 0.00 53 1012.6
20260507132125 22 254 4.8 12.9 0.08 0.08 0.00 53 1012.5
20260507131822 23 254 4.8 9.7 0.08 0.08 0.00 52 1012.6
20260507131518 22 253 0.0 12.9 0.08 0.08 0.00 51 1012.8
20260507131215 22 253 4.8 12.9 0.08 0.08 0.00 52 1012.5
20260507130912 22 254 3.2 12.9 0.08 0.08 0.00 52 1012.7
20260507130608 22 255 3.2 8.0 0.08 0.08 0.00 53 1012.8
20260507130305 22 255 1.6 9.7 0.08 0.08 0.00 53 1012.7
20260507130001 22 254 8.0 16.1 0.08 0.08 0.00 53 1012.7
20260507125658 23 252 8.0 14.5 0.08 0.08 0.00 51 1012.8
20260507125355 23 251 3.2 8.0 0.08 0.08 0.00 52 1013.0
20260507125051 22 251 4.8 9.7 0.08 0.08 0.00 52 1012.9
20260507124748 21 253 8.0 9.7 0.08 0.08 0.00 55 1013.0
20260507124445 22 254 3.2 12.9 0.08 0.08 0.00 54 1013.0
20260507124141 21 255 4.8 12.9 0.08 0.08 0.00 55 1012.9
20260507123838 21 257 3.2 17.7 0.08 0.08 0.00 53 1013.0
20260507123535 22 256 4.8 17.7 0.08 0.08 0.00 54 1012.7
20260507123231 21 258 3.2 17.7 0.08 0.08 0.00 54 1013.1
20260507122928 21 259 0.0 9.7 0.08 0.08 0.00 53 1012.9
20260507122624 22 259 1.6 8.0 0.08 0.08 0.00 52 1013.1
20260507122321 22 258 4.8 12.9 0.08 0.08 0.00 52 1013.2
20260507122018 22 256 6.4 12.9 0.08 0.08 0.00 52 1013.1
20260507121714 23 254 3.2 4.8 0.08 0.08 0.00 51 1013.1
20260507121411 22 251 3.2 6.4 0.08 0.08 0.00 52 1013.3
20260507121107 22 251 3.2 8.0 0.08 0.08 0.00 54 1013.2
20260507120804 22 252 6.4 8.0 0.08 0.08 0.00 54 1013.3
20260507120501 21 255 3.2 12.9 0.08 0.08 0.00 55 1013.2
20260507120157 21 259 8.0 12.9 0.08 0.08 0.00 57 1013.4
20260507115854 20 260 8.0 20.9 0.08 0.08 0.00 57 1016.1
20260507115551 21 260 8.0 20.9 0.08 0.08 0.00 58 1016.2
20260507115247 21 261 1.6 9.7 0.08 0.08 0.00 58 1016.2
20260507114944 20 261 3.2 8.0 0.08 0.08 0.00 59 1016.1
20260507114641 21 260 3.2 8.0 0.08 0.08 0.00 57 1016.3
20260507114337 21 259 4.8 8.0 0.08 0.08 0.00 57 1016.4
20260507114034 21 257 3.2 9.7 0.08 0.08 0.00 56 1016.3
20260507113730 21 257 1.6 8.0 0.08 0.08 0.00 56 1016.2
20260507113427 21 257 4.8 12.9 0.08 0.08 0.00 55 1016.2
20260507113124 21 257 6.4 9.7 0.08 0.08 0.00 54 1016.1
20260507112820 21 257 4.8 16.1 0.08 0.08 0.00 54 1016.3
20260507112517 21 256 9.7 16.1 0.08 0.08 0.00 56 1016.1
20260507112214 21 255 3.2 12.9 0.08 0.08 0.00 56 1016.3
20260507111910 21 255 4.8 12.9 0.08 0.08 0.00 54 1016.3
20260507111607 21 257 4.8 12.9 0.08 0.08 0.00 54 1016.4
20260507111304 22 259 9.7 14.5 0.08 0.08 0.00 52 1016.2
20260507111000 22 261 1.6 6.4 0.08 0.08 0.00 53 1016.3
20260507110657 22 260 1.6 4.8 0.08 0.08 0.00 52 1016.6
20260507110353 21 260 0.0 9.7 0.08 0.08 0.00 54 1016.5
20260507110050 21 259 0.0 9.7 0.08 0.08 0.00 57 1016.4
20260507105747 20 261 3.2 8.0 0.08 0.08 0.00 57 1016.4
20260507105443 20 264 1.6 9.7 0.08 0.08 0.00 57 1016.4
20260507105140 21 264 6.4 9.7 0.08 0.08 0.00 56 1016.8
20260507104837 21 265 3.2 6.4 0.08 0.08 0.00 55 1016.5
20260507104533 21 266 1.6 4.8 0.08 0.08 0.00 55 1016.6
20260507104230 20 266 0.0 9.7 0.08 0.08 0.00 58 1016.8
20260507103927 20 266 4.8 8.0 0.08 0.08 0.00 57 1016.6
20260507103623 21 266 3.2 9.7 0.08 0.08 0.00 57 1016.6
20260507103320 21 266 4.8 9.7 0.08 0.08 0.00 57 1016.6
20260507103016 21 266 1.6 4.8 0.08 0.08 0.00 56 1016.6
20260507102713 21 266 3.2 4.8 0.08 0.08 0.00 57 1016.6
20260507102410 20 266 0.0 8.0 0.08 0.08 0.00 59 1016.7
20260507102106 20 266 6.4 8.0 0.08 0.08 0.00 59 1016.9
20260507101803 20 266 0.0 9.7 0.08 0.08 0.00 59 1016.9
20260507101500 20 266 4.8 9.7 0.08 0.08 0.00 60 1016.8
20260507101156 20 266 0.0 9.7 0.08 0.08 0.00 60 1017.0
20260507100853 20 266 1.6 8.0 0.08 0.08 0.00 60 1017.0
20260507100550 20 266 4.8 8.0 0.08 0.08 0.00 60 1016.8
20260507100246 20 266 4.8 8.0 0.08 0.08 0.00 61 1017.0
20260507095943 20 266 0.0 6.4 0.08 0.08 0.00 61 1017.1
20260507095640 19 266 4.8 8.0 0.08 0.08 0.00 62 1016.8
20260507095335 19 266 4.8 8.0 0.08 0.08 0.00 63 1017.2
20260507095032 19 266 0.0 8.0 0.08 0.08 0.00 64 1016.9
20260507094729 19 266 4.8 6.4 0.08 0.08 0.00 64 1017.1
20260507094425 20 266 4.8 6.4 0.08 0.08 0.00 63 1016.9
20260507094122 20 266 0.0 6.4 0.08 0.08 0.00 63 1017.1
20260507093819 20 266 1.6 6.4 0.08 0.08 0.00 63 1017.2
20260507093515 19 266 3.2 6.4 0.08 0.08 0.00 65 1017.0
20260507093212 19 266 1.6 8.0 0.08 0.08 0.00 65 1017.3
20260507092908 18 266 0.0 8.0 0.08 0.08 0.00 67 1017.0
20260507092605 20 266 4.8 8.0 0.08 0.08 0.00 65 1017.1
20260507092302 20 266 0.0 6.4 0.08 0.08 0.00 63 1017.0
20260507091958 20 266 1.6 6.4 0.08 0.08 0.00 64 1017.0
20260507091655 20 266 1.6 6.4 0.08 0.08 0.00 64 1017.2
20260507091352 19 266 0.0 6.4 0.08 0.08 0.00 65 1017.2
20260507091048 19 266 3.2 6.4 0.08 0.08 0.00 65 1017.1
20260507090745 19 266 3.2 8.0 0.08 0.08 0.00 65 1016.9
20260507090442 18 266 0.0 6.4 0.08 0.08 0.00 66 1017.0
20260507090138 18 266 1.6 6.4 0.08 0.08 0.00 68 1017.1
20260507085835 18 266 0.0 6.4 0.08 0.08 0.00 69 1017.0
20260507085532 17 266 3.2 8.0 0.08 0.08 0.00 69 1017.0
20260507085228 18 266 4.8 6.4 0.08 0.08 0.00 68 1017.0
20260507084925 18 266 1.6 6.4 0.08 0.08 0.00 68 1017.0
20260507084622 18 266 4.8 6.4 0.08 0.08 0.00 67 1016.9
20260507084318 18 266 0.0 4.8 0.08 0.08 0.00 67 1016.8
20260507084015 18 266 0.0 6.4 0.08 0.08 0.00 68 1016.9
20260507083711 18 266 1.6 8.0 0.08 0.08 0.00 71 1016.8
20260507083408 17 266 4.8 9.7 0.08 0.08 0.00 70 1016.9
20260507083105 17 266 6.4 9.7 0.08 0.08 0.00 70 1016.9
20260507082801 18 266 4.8 8.0 0.08 0.08 0.00 70 1016.7
20260507082458 18 266 0.0 3.2 0.08 0.08 0.00 68 1016.8
20260507082155 18 266 0.0 1.6 0.08 0.08 0.00 68 1017.0
20260507081851 17 266 0.0 3.2 0.08 0.08 0.00 71 1016.7
20260507081548 17 266 1.6 3.2 0.08 0.08 0.00 71 1016.9
20260507081245 17 266 0.0 3.2 0.08 0.08 0.00 70 1016.7
20260507080941 17 266 1.6 4.8 0.08 0.08 0.00 71 1016.7
20260507080638 17 266 1.6 4.8 0.08 0.08 0.00 71 1016.9
20260507080334 17 266 0.0 4.8 0.08 0.08 0.00 70 1016.9
20260507080031 17 266 0.0 4.8 0.08 0.08 0.00 72 1016.7
20260507075728 17 266 0.0 4.8 0.08 0.08 0.00 70 1016.7
20260507075424 17 266 1.6 3.2 0.08 0.08 0.00 70 1016.7
20260507075121 17 266 0.0 3.2 0.08 0.08 0.00 70 1016.7
20260507074818 17 266 0.0 3.2 0.08 0.08 0.00 71 1016.7
20260507074514 17 266 0.0 3.2 0.08 0.08 0.00 71 1016.8
20260507074211 17 266 1.6 1.6 0.08 0.08 0.00 72 1016.7
20260507073908 17 266 0.0 0.0 0.08 0.08 0.00 72 1016.7
20260507073604 17 266 0.0 0.0 0.08 0.08 0.00 72 1016.5
20260507073301 16 266 0.0 0.0 0.08 0.08 0.00 73 1016.4
20260507072958 16 266 0.0 1.6 0.08 0.08 0.00 74 1016.4
20260507072654 16 266 0.0 1.6 0.08 0.08 0.00 75 1016.3
20260507072351 16 266 0.0 0.0 0.08 0.08 0.00 76 1016.4
20260507072048 16 266 0.0 0.0 0.08 0.08 0.00 76 1016.4
20260507071744 16 266 0.0 1.6 0.08 0.08 0.00 77 1016.5
20260507071441 16 266 0.0 1.6 0.08 0.08 0.00 78 1016.4
20260507071138 15 266 0.0 0.0 0.08 0.08 0.00 79 1016.4
20260507070834 15 266 0.0 0.0 0.08 0.08 0.00 79 1016.3
20260507070531 15 266 0.0 0.0 0.08 0.08 0.00 80 1016.3
20260507070227 15 266 0.0 0.0 0.08 0.08 0.00 80 1016.3
20260507065924 15 266 0.0 0.0 0.08 0.08 0.00 81 1016.1
20260507065621 15 266 0.0 0.0 0.08 0.08 0.00 81 1016.2
20260507065317 15 266 0.0 1.6 0.08 0.08 0.00 82 1016.3
20260507065014 14 266 1.6 3.2 0.08 0.08 0.00 82 1016.2
20260507064711 14 266 3.2 3.2 0.08 0.08 0.00 82 1016.2
20260507064407 15 266 1.6 4.8 0.08 0.08 0.00 82 1016.1
20260507064104 15 266 3.2 4.8 0.08 0.08 0.00 81 1016.2
20260507063801 15 266 0.0 0.0 0.08 0.08 0.00 81 1016.1
20260507063457 15 266 0.0 0.0 0.08 0.08 0.00 80 1016.2
20260507063154 15 266 0.0 0.0 0.08 0.08 0.00 81 1016.0
20260507062851 15 266 0.0 0.0 0.08 0.08 0.00 82 1016.0
20260507062547 14 266 0.0 0.0 0.08 0.08 0.00 82 1016.2
20260507062244 14 266 0.0 0.0 0.08 0.08 0.00 83 1016.0
20260507061940 14 266 0.0 0.0 0.08 0.08 0.00 83 1016.0
20260507061637 13 266 0.0 0.0 0.08 0.08 0.00 84 1016.0
20260507061334 13 266 0.0 0.0 0.08 0.08 0.00 85 1016.2
20260507061030 13 266 0.0 0.0 0.08 0.08 0.00 85 1016.1
20260507060727 13 266 0.0 0.0 0.08 0.08 0.00 85 1016.1
20260507060424 13 266 0.0 0.0 0.08 0.08 0.00 86 1016.1
20260507060120 13 266 0.0 0.0 0.08 0.08 0.00 86 1016.1
20260507055817 13 266 0.0 0.0 0.08 0.08 0.00 85 1016.0
20260507055514 13 266 0.0 0.0 0.08 0.08 0.00 86 1016.0
20260507055210 13 266 0.0 0.0 0.08 0.08 0.00 86 1016.0
20260507054907 13 266 0.0 0.0 0.08 0.08 0.00 87 1015.9
20260507054604 13 266 0.0 0.0 0.08 0.08 0.00 87 1015.7
20260507054300 13 266 0.0 0.0 0.08 0.08 0.00 87 1015.7
20260507053957 13 266 0.0 0.0 0.08 0.08 0.00 87 1015.6
20260507053654 13 266 0.0 0.0 0.08 0.08 0.00 87 1015.7
20260507053350 12 266 0.0 0.0 0.08 0.08 0.00 87 1015.6
20260507053047 12 266 0.0 0.0 0.08 0.08 0.00 87 1015.7
20260507052744 12 266 0.0 0.0 0.08 0.08 0.00 87 1015.5
20260507052440 12 266 0.0 0.0 0.08 0.08 0.00 87 1015.5
20260507052137 12 266 0.0 0.0 0.08 0.08 0.00 88 1015.3
20260507051833 12 266 0.0 0.0 0.08 0.08 0.00 88 1015.4
20260507051530 12 266 0.0 0.0 0.08 0.08 0.00 88 1015.5
20260507051227 12 266 0.0 0.0 0.08 0.08 0.00 88 1015.3
20260507050923 12 266 0.0 0.0 0.08 0.08 0.00 89 1015.2
20260507050620 12 266 0.0 0.0 0.08 0.08 0.00 89 1015.3
20260507050317 12 266 0.0 0.0 0.08 0.08 0.00 89 1015.3
20260507050013 12 266 0.0 0.0 0.08 0.08 0.00 89 1015.2
20260507045710 12 266 0.0 0.0 0.08 0.08 0.00 89 1015.2
20260507045406 12 266 0.0 0.0 0.08 0.08 0.00 89 1015.1
20260507045103 11 266 0.0 0.0 0.08 0.08 0.00 89 1014.8
20260507044800 11 266 0.0 0.0 0.08 0.08 0.00 89 1015.2
20260507044456 11 266 0.0 0.0 0.08 0.08 0.00 89 1015.1
20260507044153 11 266 0.0 0.0 0.08 0.08 0.00 90 1015.1
20260507043850 11 266 0.0 0.0 0.08 0.08 0.00 90 1014.9
20260507043546 11 266 0.0 0.0 0.08 0.08 0.00 90 1015.0
20260507043243 11 266 0.0 0.0 0.08 0.08 0.00 90 1015.0
20260507042940 11 266 0.0 0.0 0.08 0.08 0.00 90 1014.8
20260507042636 11 266 0.0 0.0 0.08 0.08 0.00 90 1015.0
20260507042333 11 266 0.0 0.0 0.08 0.08 0.00 90 1015.0
20260507042030 11 266 0.0 0.0 0.08 0.08 0.00 90 1014.9
20260507041726 11 266 0.0 0.0 0.08 0.08 0.00 90 1014.8
20260507041423 11 266 0.0 0.0 0.08 0.08 0.00 89 1015.0
20260507041120 11 266 0.0 0.0 0.08 0.08 0.00 89 1014.9
20260507040816 11 266 0.0 0.0 0.08 0.08 0.00 89 1014.7
20260507040513 11 266 0.0 0.0 0.08 0.08 0.00 89 1014.8
20260507040210 11 266 0.0 0.0 0.08 0.08 0.00 89 1014.9
20260507035906 11 266 0.0 0.0 0.08 0.08 0.00 89 1014.7
20260507035603 11 266 0.0 0.0 0.08 0.08 0.00 89 1014.8
20260507035259 11 266 0.0 0.0 0.08 0.08 0.00 89 1014.6
20260507034956 11 266 0.0 0.0 0.08 0.08 0.00 89 1014.5
20260507034653 11 266 0.0 0.0 0.08 0.08 0.00 89 1014.5
20260507034349 11 266 0.0 0.0 0.08 0.08 0.00 89 1014.5
20260507034046 11 266 0.0 0.0 0.08 0.08 0.00 89 1014.6
20260507033743 11 266 0.0 0.0 0.08 0.08 0.00 89 1014.5
20260507033439 11 266 0.0 1.6 0.08 0.08 0.00 89 1014.5
20260507033136 11 266 0.0 3.2 0.08 0.08 0.00 89 1014.4
20260507032833 11 266 1.6 3.2 0.08 0.08 0.00 89 1014.3
20260507032529 11 266 1.6 4.8 0.08 0.08 0.00 88 1014.2
20260507032226 11 266 3.2 3.2 0.08 0.08 0.00 89 1014.2
20260507031923 11 266 0.0 3.2 0.08 0.08 0.00 88 1014.4
20260507031619 12 266 1.6 3.2 0.08 0.08 0.00 88 1014.2
20260507031316 12 266 0.0 0.0 0.08 0.08 0.00 88 1014.4
20260507031012 12 266 0.0 0.0 0.08 0.08 0.00 88 1014.2
20260507030709 12 266 0.0 0.0 0.08 0.08 0.00 88 1014.2
20260507030406 12 266 0.0 0.0 0.08 0.08 0.00 88 1014.2
20260507025759 12 266 0.0 0.0 0.08 0.08 0.00 88 1014.1
20260507025456 12 266 0.0 3.2 0.08 0.08 0.00 87 1014.3
20260507025152 12 266 1.6 3.2 0.08 0.08 0.00 87 1014.1
20260507024849 12 266 0.0 1.6 0.08 0.08 0.00 87 1014.1
20260507024546 12 266 0.0 0.0 0.08 0.08 0.00 87 1014.3
20260507024242 12 266 0.0 0.0 0.08 0.08 0.00 87 1014.1
20260507023939 12 266 0.0 0.0 0.08 0.08 0.00 87 1014.3
20260507023636 12 266 0.0 0.0 0.08 0.08 0.00 87 1014.4
20260507023332 12 266 0.0 0.0 0.08 0.08 0.00 87 1014.0
20260507023029 12 266 0.0 0.0 0.08 0.08 0.00 87 1014.2
20260507022726 12 266 0.0 0.0 0.08 0.08 0.00 87 1014.2
20260507022422 12 266 0.0 0.0 0.08 0.08 0.00 87 1014.3
20260507022119 12 266 0.0 0.0 0.08 0.08 0.00 88 1014.3
20260507021816 12 266 0.0 0.0 0.08 0.08 0.00 88 1014.3
20260507021512 12 266 0.0 0.0 0.08 0.08 0.00 88 1014.1
20260507021209 12 266 0.0 0.0 0.08 0.08 0.00 88 1014.4
20260507020905 12 266 0.0 0.0 0.08 0.08 0.00 88 1014.4
20260507020602 12 266 0.0 1.6 0.08 0.08 0.00 88 1014.3
20260507020259 12 266 1.6 3.2 0.08 0.08 0.00 87 1014.4
20260507015955 12 266 1.6 4.8 0.08 0.08 0.00 87 1014.3
20260507015652 12 266 1.6 4.8 0.08 0.08 0.00 87 1014.2
20260507015349 12 266 3.2 4.8 0.08 0.08 0.00 86 1014.3
20260507015045 12 266 3.2 4.8 0.08 0.08 0.00 86 1014.2
20260507014742 12 266 1.6 3.2 0.08 0.08 0.00 87 1014.3
20260507014439 12 266 0.0 0.0 0.08 0.08 0.00 87 1014.0
20260507014135 12 266 0.0 0.0 0.08 0.08 0.00 87 1014.2
20260507013832 12 266 0.0 0.0 0.08 0.08 0.00 87 1014.1
20260507013529 12 266 0.0 0.0 0.08 0.08 0.00 87 1014.0
20260507013225 12 266 0.0 3.2 0.08 0.08 0.00 87 1014.1
20260507012922 12 266 1.6 3.2 0.08 0.08 0.00 87 1014.1
20260507012618 12 266 1.6 3.2 0.08 0.08 0.00 87 1014.2
20260507012315 12 266 0.0 0.0 0.08 0.08 0.00 87 1014.1
20260507012012 12 266 0.0 0.0 0.08 0.08 0.00 87 1014.0
20260507011709 12 266 0.0 0.0 0.08 0.08 0.00 87 1014.2
20260507011405 12 266 0.0 3.2 0.08 0.08 0.00 87 1014.1
20260507011102 12 266 1.6 3.2 0.08 0.08 0.00 87 1014.2
20260507010758 12 266 1.6 3.2 0.08 0.08 0.00 87 1014.1
20260507010455 12 266 1.6 3.2 0.08 0.08 0.00 87 1014.0
20260507010151 12 266 1.6 3.2 0.08 0.08 0.00 87 1014.2
20260507005848 12 266 0.0 3.2 0.08 0.08 0.00 87 1014.1
20260507005545 12 266 3.2 4.8 0.08 0.08 0.00 87 1014.3
20260507005242 12 266 1.6 4.8 0.08 0.08 0.00 87 1014.2
20260507004938 12 266 3.2 6.4 0.08 0.08 0.00 87 1013.9
20260507004635 12 266 4.8 6.4 0.08 0.08 0.00 87 1014.1
20260507004331 11 266 3.2 8.0 0.08 0.08 0.00 87 1014.2
20260507004028 11 266 4.8 8.0 0.08 0.08 0.00 87 1014.1
20260507003725 11 266 4.8 8.0 0.08 0.08 0.00 87 1014.1
20260507003421 11 266 3.2 6.4 0.08 0.08 0.00 87 1014.2
20260507003118 11 266 1.6 6.4 0.08 0.08 0.00 87 1013.9
20260507002815 11 262 4.8 8.0 0.08 0.08 0.00 87 1014.1
20260507002511 11 257 4.8 9.7 0.08 0.08 0.00 87 1014.0
20260507002208 11 253 6.4 8.0 0.08 0.08 0.00 87 1013.9
20260507001905 11 250 3.2 4.8 0.08 0.08 0.00 87 1013.9
20260507001601 11 246 1.6 4.8 0.08 0.08 0.00 87 1014.2
20260507001258 12 241 3.2 6.4 0.08 0.08 0.00 87 1014.0
20260507000955 12 239 4.8 6.4 0.08 0.08 0.00 87 1014.1
20260507000651 12 235 3.2 4.8 0.08 0.08 0.00 86 1014.0
20260507000350 12 226 0.0 0.0 0.08 0.08 0.00 86 1014.1
20260507000044 12 215 0.0 3.2 0.08 0.08 0.00 86 1014.0
20260506235741 12 204 1.6 3.2 0.08 0.08 0.00 86 1014.0
20260506235438 12 184 0.0 3.2 0.08 0.08 0.00 86 1014.0
20260506235134 12 165 1.6 4.8 0.08 0.08 0.00 85 1014.1
20260506234831 12 152 3.2 4.8 0.08 0.08 0.00 84 1014.1
20260506234528 12 132 0.0 0.0 0.08 0.08 0.00 84 1014.2
20260506234224 12 133 0.0 3.2 0.08 0.08 0.00 83 1014.1
20260506233921 13 132 1.6 4.8 0.08 0.08 0.00 82 1014.0
20260506233618 13 122 1.6 4.8 0.08 0.08 0.00 81 1013.8
20260506233314 15 116 3.2 6.4 0.08 0.08 0.00 79 1013.8
20260506233011 15 109 1.6 3.2 0.08 0.08 0.00 77 1014.0
20260506232708 15 109 1.6 4.8 0.08 0.08 0.00 77 1013.9
20260506232404 15 108 0.0 6.4 0.08 0.08 0.00 77 1013.7
20260506232101 15 106 1.6 6.4 0.08 0.08 0.00 78 1013.9
20260506231758 15 102 0.0 4.8 0.08 0.08 0.00 79 1014.1
20260506231454 15 100 0.0 3.2 0.08 0.08 0.00 78 1014.1
20260506231151 15 98 0.0 0.0 0.08 0.08 0.00 79 1014.1
20260506230847 15 98 0.0 3.2 0.08 0.08 0.00 78 1014.1
20260506230544 15 98 0.0 4.8 0.08 0.08 0.00 78 1014.0
20260506230241 14 96 1.6 3.2 0.08 0.08 0.00 80 1014.1
20260506225937 14 96 0.0 0.0 0.08 0.08 0.00 80 1013.9
20260506225634 15 98 0.0 0.0 0.08 0.08 0.00 79 1014.0
20260506225331 15 99 0.0 0.0 0.08 0.08 0.00 78 1014.1
20260506225027 15 101 0.0 3.2 0.08 0.08 0.00 78 1014.0
20260506224724 15 102 0.0 3.2 0.08 0.08 0.00 77 1014.0
20260506224421 15 101 1.6 3.2 0.08 0.08 0.00 78 1014.0
20260506224118 15 101 0.0 1.6 0.08 0.08 0.00 78 1013.8
20260506223814 15 104 0.0 9.7 0.08 0.08 0.00 78 1014.0
20260506223511 15 103 0.0 9.7 0.08 0.08 0.00 78 1013.9
20260506223207 15 100 0.0 4.8 0.08 0.08 0.00 79 1014.1
20260506222904 15 100 0.0 0.0 0.08 0.08 0.00 79 1014.1
20260506222601 15 102 0.0 0.0 0.08 0.08 0.00 79 1014.0
20260506222257 15 104 0.0 4.8 0.08 0.08 0.00 78 1014.0
20260506221954 15 106 0.0 8.0 0.08 0.08 0.00 78 1013.9
20260506221651 15 106 1.6 9.7 0.08 0.08 0.00 78 1013.9
20260506221347 15 101 1.6 4.8 0.08 0.08 0.00 78 1013.8
20260506221044 15 101 0.0 4.8 0.08 0.08 0.00 78 1013.8
20260506220741 15 99 0.0 1.6 0.08 0.08 0.00 78 1013.9
20260506220437 15 101 0.0 8.0 0.08 0.08 0.00 78 1013.8
20260506220134 15 100 0.0 3.2 0.08 0.08 0.00 78 1014.0
20260506215830 15 101 0.0 3.2 0.08 0.08 0.00 78 1013.9
20260506215527 15 103 0.0 3.2 0.08 0.08 0.00 78 1014.0
20260506215224 15 104 0.0 6.4 0.08 0.08 0.00 78 1014.0
20260506214920 15 105 0.0 9.7 0.08 0.08 0.00 78 1013.9
20260506214617 15 104 1.6 9.7 0.08 0.08 0.00 77 1013.9
20260506214314 15 101 1.6 4.8 0.08 0.08 0.00 77 1013.8
20260506214010 15 102 0.0 4.8 0.08 0.08 0.00 77 1013.8
20260506213707 15 101 0.0 4.8 0.08 0.08 0.00 78 1013.6
20260506213404 15 102 3.2 3.2 0.08 0.08 0.00 77 1013.7
20260506213100 15 101 1.6 4.8 0.08 0.08 0.00 77 1013.7
20260506212757 15 103 0.0 8.0 0.08 0.08 0.00 77 1013.6
20260506212453 15 101 0.0 8.0 0.08 0.08 0.00 77 1013.6
20260506212150 15 101 0.0 8.0 0.08 0.08 0.00 77 1013.8
20260506211847 15 99 1.6 8.0 0.08 0.08 0.00 77 1013.8
20260506211543 15 94 0.0 1.6 0.08 0.08 0.00 77 1013.8
20260506211240 15 95 0.0 3.2 0.08 0.08 0.00 77 1013.6
20260506210937 15 94 0.0 3.2 0.08 0.08 0.00 77 1013.7
20260506210633 15 94 0.0 1.6 0.08 0.08 0.00 77 1013.5
20260506210330 15 96 0.0 0.0 0.08 0.08 0.00 77 1013.7
20260506210026 15 97 0.0 1.6 0.08 0.08 0.00 76 1013.7
20260506205723 16 99 0.0 12.9 0.08 0.08 0.00 76 1013.6
20260506205420 16 101 4.8 12.9 0.08 0.08 0.00 76 1013.5
20260506205117 16 99 1.6 6.4 0.08 0.08 0.00 76 1013.8
20260506204813 16 98 0.0 6.4 0.08 0.08 0.00 76 1013.4
20260506204510 16 96 0.0 3.2 0.08 0.08 0.00 76 1013.6
20260506204206 16 97 0.0 8.0 0.08 0.08 0.00 75 1013.4
20260506203903 16 96 0.0 4.8 0.08 0.08 0.00 75 1013.6
20260506203600 16 97 3.2 9.7 0.08 0.08 0.00 75 1013.7
20260506203256 16 98 0.0 9.7 0.08 0.08 0.00 75 1013.4
20260506202953 16 97 0.0 4.8 0.08 0.08 0.00 74 1013.5
20260506202650 16 98 1.6 4.8 0.08 0.08 0.00 74 1013.4
20260506202346 16 96 1.6 4.8 0.08 0.08 0.00 74 1013.7
20260506202043 16 95 0.0 4.8 0.08 0.08 0.00 74 1013.6
20260506201740 16 95 0.0 3.2 0.08 0.08 0.00 74 1013.8
20260506201436 16 96 0.0 6.4 0.08 0.08 0.00 73 1013.8